owner,sensor,date,latitude,longitude,vertical_datum,wind_speed,wind_to_direction,wind_speed_of_gust,qcFlag 
DISL,ioos:station:DISL:MBLA:1,2011-04-01T00:00:00Z,30.4367,-88.0117,14.2,2.71,291.2,-9999.0,'1111122,1111122,1111122' 
DISL,ioos:station:DISL:MBLA:1,2011-04-01T00:30:00Z,30.4367,-88.0117,14.2,4.21,273.8,-9999.0,'1111122,1111122,1111122' 
DISL,ioos:station:DISL:MBLA:1,2011-04-01T01:00:00Z,30.4367,-88.0117,14.2,5.21,270.9,-9999.0,'1111122,1111122,1111122' 
DISL,ioos:station:DISL:MBLA:1,2011-04-01T01:30:00Z,30.4367,-88.0117,14.2,4.4,257.9,-9999.0,'1111122,1111122,1111122' 
DISL,ioos:station:DISL:MBLA:1,2011-04-01T02:00:00Z,30.4367,-88.0117,14.2,4.61,274.4,-9999.0,'1111122,1111122,1111122' 
DISL,ioos:station:DISL:MBLA:1,2011-04-01T02:30:00Z,30.4367,-88.0117,14.2,3.86,292.1,-9999.0,'1111122,1111122,1111122' 
DISL,ioos:station:DISL:MBLA:1,2011-04-01T03:00:00Z,30.4367,-88.0117,14.2,5.95,298.2,-9999.0,'1111122,1111122,1111122' 
DISL,ioos:station:DISL:MBLA:1,2011-04-01T03:30:00Z,30.4367,-88.0117,14.2,5.61,311.9,-9999.0,'1111122,1111122,1111122' 
DISL,ioos:station:DISL:MBLA:1,2011-04-01T04:00:00Z,30.4367,-88.0117,14.2,4.21,309.1,-9999.0,'1111122,1111122,1111122' 
DISL,ioos:station:DISL:MBLA:1,2011-04-01T04:30:00Z,30.4367,-88.0117,14.2,3.56,303.4,-9999.0,'1111122,1111122,1111122' 
DISL,ioos:station:DISL:MBLA:1,2011-04-01T05:00:00Z,30.4367,-88.0117,14.2,5.56,299.9,-9999.0,'1111122,1111122,1111122' 
DISL,ioos:station:DISL:MBLA:1,2011-04-01T05:30:00Z,30.4367,-88.0117,14.2,6.15,300.3,-9999.0,'1111122,1111122,1111122' 
DISL,ioos:station:DISL:MBLA:1,2011-04-01T06:00:00Z,30.4367,-88.0117,14.2,4.52,288.8,-9999.0,'1111122,1111122,1111122' 
DISL,ioos:station:DISL:MBLA:1,2011-04-01T06:30:00Z,30.4367,-88.0117,14.2,4.71,292.4,-9999.0,'1111122,1111122,1111122' 
DISL,ioos:station:DISL:MBLA:1,2011-04-01T07:00:00Z,30.4367,-88.0117,14.2,4.4,282.3,-9999.0,'1111122,1111122,1111122' 
DISL,ioos:station:DISL:MBLA:1,2011-04-01T07:30:00Z,30.4367,-88.0117,14.2,3.13,264.2,-9999.0,'1111122,1111122,1111122' 
DISL,ioos:station:DISL:MBLA:1,2011-04-01T08:00:00Z,30.4367,-88.0117,14.2,3.45,255.2,-9999.0,'1111122,1111122,1111122' 
DISL,ioos:station:DISL:MBLA:1,2011-04-01T08:30:00Z,30.4367,-88.0117,14.2,4.27,263.6,-9999.0,'1111122,1111122,1111122' 
DISL,ioos:station:DISL:MBLA:1,2011-04-01T09:00:00Z,30.4367,-88.0117,14.2,4.58,258.1,-9999.0,'1111122,1111122,1111122' 
DISL,ioos:station:DISL:MBLA:1,2011-04-01T09:30:00Z,30.4367,-88.0117,14.2,4.34,245.3,-9999.0,'1111122,1111122,1111122' 
DISL,ioos:station:DISL:MBLA:1,2011-04-01T10:00:00Z,30.4367,-88.0117,14.2,4.56,240.6,-9999.0,'1111122,1111122,1111122' 
DISL,ioos:station:DISL:MBLA:1,2011-04-01T10:30:00Z,30.4367,-88.0117,14.2,3.63,249.9,-9999.0,'1111122,1111122,1111122' 
DISL,ioos:station:DISL:MBLA:1,2011-04-01T11:00:00Z,30.4367,-88.0117,14.2,3.94,249.2,-9999.0,'1111122,1111122,1111122' 
DISL,ioos:station:DISL:MBLA:1,2011-04-01T11:30:00Z,30.4367,-88.0117,14.2,3.33,258.8,-9999.0,'1111122,1111122,1111122' 
DISL,ioos:station:DISL:MBLA:1,2011-04-01T12:00:00Z,30.4367,-88.0117,14.2,3.27,277.0,-9999.0,'1111122,1111122,1111122' 
DISL,ioos:station:DISL:MBLA:1,2011-04-01T12:30:00Z,30.4367,-88.0117,14.2,3.26,287.0,-9999.0,'1111122,1111122,1111122' 
DISL,ioos:station:DISL:MBLA:1,2011-04-01T13:00:00Z,30.4367,-88.0117,14.2,3.77,299.8,-9999.0,'1111122,1111122,1111122' 
DISL,ioos:station:DISL:MBLA:1,2011-04-01T13:30:00Z,30.4367,-88.0117,14.2,3.69,312.5,-9999.0,'1111122,1111122,1111122' 
DISL,ioos:station:DISL:MBLA:1,2011-04-01T14:00:00Z,30.4367,-88.0117,14.2,4.53,308.4,-9999.0,'1111122,1111122,1111122' 
DISL,ioos:station:DISL:MBLA:1,2011-04-01T14:30:00Z,30.4367,-88.0117,14.2,4.55,297.5,-9999.0,'1111122,1111122,1111122' 
DISL,ioos:station:DISL:MBLA:1,2011-04-01T15:00:00Z,30.4367,-88.0117,14.2,4.04,287.8,-9999.0,'1111122,1111122,1111122' 
DISL,ioos:station:DISL:MBLA:1,2011-04-01T15:30:00Z,30.4367,-88.0117,14.2,3.96,293.5,-9999.0,'1111122,1111122,1111122' 
DISL,ioos:station:DISL:MBLA:1,2011-04-01T16:00:00Z,30.4367,-88.0117,14.2,3.89,273.6,-9999.0,'1111122,1111122,1111122' 
DISL,ioos:station:DISL:MBLA:1,2011-04-01T16:30:00Z,30.4367,-88.0117,14.2,4.08,290.2,-9999.0,'1111122,1111122,1111122' 
DISL,ioos:station:DISL:MBLA:1,2011-04-01T17:00:00Z,30.4367,-88.0117,14.2,1.14,341.3,-9999.0,'1111122,1111122,1111122' 
DISL,ioos:station:DISL:MBLA:1,2011-04-01T17:30:00Z,30.4367,-88.0117,14.2,0.28,11.85,-9999.0,'1111122,1111122,1111122' 
DISL,ioos:station:DISL:MBLA:1,2011-04-01T18:00:00Z,30.4367,-88.0117,14.2,6.09,207.0,-9999.0,'1111122,1111122,1111122' 
DISL,ioos:station:DISL:MBLA:1,2011-04-01T18:30:00Z,30.4367,-88.0117,14.2,8.89,212.2,-9999.0,'1111122,1111122,1111122' 
DISL,ioos:station:DISL:MBLA:1,2011-04-01T19:00:00Z,30.4367,-88.0117,14.2,9.23,213.4,-9999.0,'1111122,1111122,1111122' 
DISL,ioos:station:DISL:MBLA:1,2011-04-01T19:30:00Z,30.4367,-88.0117,14.2,8.77,211.6,-9999.0,'1111122,1111122,1111122' 
DISL,ioos:station:DISL:MBLA:1,2011-04-01T20:00:00Z,30.4367,-88.0117,14.2,9.27,211.5,-9999.0,'1111122,1111122,1111122' 
DISL,ioos:station:DISL:MBLA:1,2011-04-01T20:30:00Z,30.4367,-88.0117,14.2,9.86,211.0,-9999.0,'1111122,1111122,1111122' 
DISL,ioos:station:DISL:MBLA:1,2011-04-01T21:00:00Z,30.4367,-88.0117,14.2,9.77,214.3,-9999.0,'1111122,1111122,1111122' 
DISL,ioos:station:DISL:MBLA:1,2011-04-01T21:30:00Z,30.4367,-88.0117,14.2,10.36,216.1,-9999.0,'1111122,1111122,1111122' 
DISL,ioos:station:DISL:MBLA:1,2011-04-01T22:00:00Z,30.4367,-88.0117,14.2,10.91,219.1,-9999.0,'1111122,1111122,1111122' 
DISL,ioos:station:DISL:MBLA:1,2011-04-01T22:30:00Z,30.4367,-88.0117,14.2,10.54,219.1,-9999.0,'1111122,1111122,1111122' 
DISL,ioos:station:DISL:MBLA:1,2011-04-01T23:00:00Z,30.4367,-88.0117,14.2,9.94,222.6,-9999.0,'1111122,1111122,1111122' 
DISL,ioos:station:DISL:MBLA:1,2011-04-01T23:30:00Z,30.4367,-88.0117,14.2,9.72,221.7,-9999.0,'1111122,1111122,1111122' 
DISL,ioos:station:DISL:MBLA:1,2011-04-02T00:00:00Z,30.4367,-88.0117,14.2,10.23,222.7,-9999.0,'1111122,1111122,1111122' 
DISL,ioos:station:DISL:MBLA:1,2011-04-02T00:30:00Z,30.4367,-88.0117,14.2,9.85,225.9,-9999.0,'1111122,1111122,1111122' 
DISL,ioos:station:DISL:MBLA:1,2011-04-02T01:00:00Z,30.4367,-88.0117,14.2,7.86,228.4,-9999.0,'1111122,1111122,1111122' 
DISL,ioos:station:DISL:MBLA:1,2011-04-02T01:30:00Z,30.4367,-88.0117,14.2,7.25,227.4,-9999.0,'1111122,1111122,1111122' 
DISL,ioos:station:DISL:MBLA:1,2011-04-02T02:00:00Z,30.4367,-88.0117,14.2,7.97,225.6,-9999.0,'1111122,1111122,1111122' 
DISL,ioos:station:DISL:MBLA:1,2011-04-02T02:30:00Z,30.4367,-88.0117,14.2,8.05,220.5,-9999.0,'1111122,1111122,1111122' 
DISL,ioos:station:DISL:MBLA:1,2011-04-02T03:00:00Z,30.4367,-88.0117,14.2,8.04,219.4,-9999.0,'1111122,1111122,1111122' 
DISL,ioos:station:DISL:MBLA:1,2011-04-02T03:30:00Z,30.4367,-88.0117,14.2,7.94,223.6,-9999.0,'1111122,1111122,1111122' 
DISL,ioos:station:DISL:MBLA:1,2011-04-02T04:00:00Z,30.4367,-88.0117,14.2,7.07,232.7,-9999.0,'1111122,1111122,1111122' 
DISL,ioos:station:DISL:MBLA:1,2011-04-02T04:30:00Z,30.4367,-88.0117,14.2,7.18,235.8,-9999.0,'1111122,1111122,1111122' 
DISL,ioos:station:DISL:MBLA:1,2011-04-02T05:00:00Z,30.4367,-88.0117,14.2,7.29,233.8,-9999.0,'1111122,1111122,1111122' 
DISL,ioos:station:DISL:MBLA:1,2011-04-02T05:30:00Z,30.4367,-88.0117,14.2,7.81,231.5,-9999.0,'1111122,1111122,1111122' 
DISL,ioos:station:DISL:MBLA:1,2011-04-02T06:00:00Z,30.4367,-88.0117,14.2,7.16,236.3,-9999.0,'1111122,1111122,1111122' 
DISL,ioos:station:DISL:MBLA:1,2011-04-02T06:30:00Z,30.4367,-88.0117,14.2,6.95,236.5,-9999.0,'1111122,1111122,1111122' 
DISL,ioos:station:DISL:MBLA:1,2011-04-02T07:00:00Z,30.4367,-88.0117,14.2,6.37,241.9,-9999.0,'1111122,1111122,1111122' 
DISL,ioos:station:DISL:MBLA:1,2011-04-02T07:30:00Z,30.4367,-88.0117,14.2,4.81,246.8,-9999.0,'1111122,1111122,1111122' 
DISL,ioos:station:DISL:MBLA:1,2011-04-02T08:00:00Z,30.4367,-88.0117,14.2,4.46,252.2,-9999.0,'1111122,1111122,1111122' 
DISL,ioos:station:DISL:MBLA:1,2011-04-02T08:30:00Z,30.4367,-88.0117,14.2,4.28,242.8,-9999.0,'1111122,1111122,1111122' 
DISL,ioos:station:DISL:MBLA:1,2011-04-02T09:00:00Z,30.4367,-88.0117,14.2,4.34,236.1,-9999.0,'1111122,1111122,1111122' 
DISL,ioos:station:DISL:MBLA:1,2011-04-02T09:30:00Z,30.4367,-88.0117,14.2,4.18,249.8,-9999.0,'1111122,1111122,1111122' 
DISL,ioos:station:DISL:MBLA:1,2011-04-02T10:00:00Z,30.4367,-88.0117,14.2,3.76,284.4,-9999.0,'1111122,1111122,1111122' 
DISL,ioos:station:DISL:MBLA:1,2011-04-02T10:30:00Z,30.4367,-88.0117,14.2,2.43,304.6,-9999.0,'1111122,1111122,1111122' 
DISL,ioos:station:DISL:MBLA:1,2011-04-02T11:00:00Z,30.4367,-88.0117,14.2,2.87,339.0,-9999.0,'1111122,1111122,1111122' 
DISL,ioos:station:DISL:MBLA:1,2011-04-02T11:30:00Z,30.4367,-88.0117,14.2,3.8,300.1,-9999.0,'1111122,1111122,1111122' 
DISL,ioos:station:DISL:MBLA:1,2011-04-02T12:00:00Z,30.4367,-88.0117,14.2,3.58,283.0,-9999.0,'1111122,1111122,1111122' 
DISL,ioos:station:DISL:MBLA:1,2011-04-02T12:30:00Z,30.4367,-88.0117,14.2,2.8,279.3,-9999.0,'1111122,1111122,1111122' 
DISL,ioos:station:DISL:MBLA:1,2011-04-02T13:00:00Z,30.4367,-88.0117,14.2,3.13,276.4,-9999.0,'1111122,1111122,1111122' 
DISL,ioos:station:DISL:MBLA:1,2011-04-02T13:30:00Z,30.4367,-88.0117,14.2,3.16,297.6,-9999.0,'1111122,1111122,1111122' 
DISL,ioos:station:DISL:MBLA:1,2011-04-02T14:00:00Z,30.4367,-88.0117,14.2,2.06,309.2,-9999.0,'1111122,1111122,1111122' 
DISL,ioos:station:DISL:MBLA:1,2011-04-02T14:30:00Z,30.4367,-88.0117,14.2,2.4,340.4,-9999.0,'1111122,1111122,1111122' 
DISL,ioos:station:DISL:MBLA:1,2011-04-02T15:00:00Z,30.4367,-88.0117,14.2,1.96,344.8,-9999.0,'1111122,1111122,1111122' 
DISL,ioos:station:DISL:MBLA:1,2011-04-02T15:30:00Z,30.4367,-88.0117,14.2,2.03,354.1,-9999.0,'1111122,1111122,1111122' 
DISL,ioos:station:DISL:MBLA:1,2011-04-02T16:00:00Z,30.4367,-88.0117,14.2,0.59,298.8,-9999.0,'1111122,1111122,1111122' 
DISL,ioos:station:DISL:MBLA:1,2011-04-02T16:30:00Z,30.4367,-88.0117,14.2,0.11,170.2,-9999.0,'1111122,1111122,1111122' 
DISL,ioos:station:DISL:MBLA:1,2011-04-02T17:00:00Z,30.4367,-88.0117,14.2,2.02,113.7,-9999.0,'1111122,1111122,1111122' 
DISL,ioos:station:DISL:MBLA:1,2011-04-02T17:30:00Z,30.4367,-88.0117,14.2,2.34,109.2,-9999.0,'1111122,1111122,1111122' 
DISL,ioos:station:DISL:MBLA:1,2011-04-02T18:00:00Z,30.4367,-88.0117,14.2,3.03,161.9,-9999.0,'1111122,1111122,1111122' 
DISL,ioos:station:DISL:MBLA:1,2011-04-02T18:30:00Z,30.4367,-88.0117,14.2,5.77,196.5,-9999.0,'1111122,1111122,1111122' 
DISL,ioos:station:DISL:MBLA:1,2011-04-02T19:00:00Z,30.4367,-88.0117,14.2,6.61,188.6,-9999.0,'1111122,1111122,1111122' 
DISL,ioos:station:DISL:MBLA:1,2011-04-02T19:30:00Z,30.4367,-88.0117,14.2,6.25,203.4,-9999.0,'1111122,1111122,1111122' 
DISL,ioos:station:DISL:MBLA:1,2011-04-02T20:00:00Z,30.4367,-88.0117,14.2,5.84,206.4,-9999.0,'1111122,1111122,1111122' 
DISL,ioos:station:DISL:MBLA:1,2011-04-02T20:30:00Z,30.4367,-88.0117,14.2,5.59,198.4,-9999.0,'1111122,1111122,1111122' 
DISL,ioos:station:DISL:MBLA:1,2011-04-02T21:00:00Z,30.4367,-88.0117,14.2,6.36,188.3,-9999.0,'1111122,1111122,1111122' 
DISL,ioos:station:DISL:MBLA:1,2011-04-02T21:30:00Z,30.4367,-88.0117,14.2,5.85,197.6,-9999.0,'1111122,1111122,1111122' 
DISL,ioos:station:DISL:MBLA:1,2011-04-02T22:00:00Z,30.4367,-88.0117,14.2,5.11,191.7,-9999.0,'1111122,1111122,1111122' 
DISL,ioos:station:DISL:MBLA:1,2011-04-02T22:30:00Z,30.4367,-88.0117,14.2,4.97,195.5,-9999.0,'1111122,1111122,1111122' 
DISL,ioos:station:DISL:MBLA:1,2011-04-02T23:00:00Z,30.4367,-88.0117,14.2,5.39,202.7,-9999.0,'1111122,1111122,1111122' 
DISL,ioos:station:DISL:MBLA:1,2011-04-02T23:30:00Z,30.4367,-88.0117,14.2,5.71,213.2,-9999.0,'1111122,1111122,1111122' 
DISL,ioos:station:DISL:MBLA:1,2011-04-03T00:00:00Z,30.4367,-88.0117,14.2,6.4,220.8,-9999.0,'1111122,1111122,1111122' 
DISL,ioos:station:DISL:MBLA:1,2011-04-03T00:30:00Z,30.4367,-88.0117,14.2,5.87,227.8,-9999.0,'1111122,1111122,1111122' 
DISL,ioos:station:DISL:MBLA:1,2011-04-03T01:00:00Z,30.4367,-88.0117,14.2,4.87,232.2,-9999.0,'1111122,1111122,1111122' 
DISL,ioos:station:DISL:MBLA:1,2011-04-03T01:30:00Z,30.4367,-88.0117,14.2,4.49,232.7,-9999.0,'1111122,1111122,1111122' 
DISL,ioos:station:DISL:MBLA:1,2011-04-03T02:00:00Z,30.4367,-88.0117,14.2,4.23,229.4,-9999.0,'1111122,1111122,1111122' 
DISL,ioos:station:DISL:MBLA:1,2011-04-03T02:30:00Z,30.4367,-88.0117,14.2,4.86,216.0,-9999.0,'1111122,1111122,1111122' 
DISL,ioos:station:DISL:MBLA:1,2011-04-03T03:00:00Z,30.4367,-88.0117,14.2,5.19,218.0,-9999.0,'1111122,1111122,1111122' 
DISL,ioos:station:DISL:MBLA:1,2011-04-03T03:30:00Z,30.4367,-88.0117,14.2,3.53,189.0,-9999.0,'1111122,1111122,1111122' 
DISL,ioos:station:DISL:MBLA:1,2011-04-03T04:00:00Z,30.4367,-88.0117,14.2,4.23,195.5,-9999.0,'1111122,1111122,1111122' 
DISL,ioos:station:DISL:MBLA:1,2011-04-03T04:30:00Z,30.4367,-88.0117,14.2,3.67,183.6,-9999.0,'1111122,1111122,1111122' 
DISL,ioos:station:DISL:MBLA:1,2011-04-03T05:00:00Z,30.4367,-88.0117,14.2,4.5,188.0,-9999.0,'1111122,1111122,1111122' 
DISL,ioos:station:DISL:MBLA:1,2011-04-03T05:30:00Z,30.4367,-88.0117,14.2,3.95,194.0,-9999.0,'1111122,1111122,1111122' 
DISL,ioos:station:DISL:MBLA:1,2011-04-03T06:00:00Z,30.4367,-88.0117,14.2,3.2,192.7,-9999.0,'1111122,1111122,1111122' 
DISL,ioos:station:DISL:MBLA:1,2011-04-03T06:30:00Z,30.4367,-88.0117,14.2,2.78,182.3,-9999.0,'1111122,1111122,1111122' 
DISL,ioos:station:DISL:MBLA:1,2011-04-03T07:00:00Z,30.4367,-88.0117,14.2,2.67,188.3,-9999.0,'1111122,1111122,1111122' 
DISL,ioos:station:DISL:MBLA:1,2011-04-03T07:30:00Z,30.4367,-88.0117,14.2,3.87,180.9,-9999.0,'1111122,1111122,1111122' 
DISL,ioos:station:DISL:MBLA:1,2011-04-03T08:00:00Z,30.4367,-88.0117,14.2,4.04,172.3,-9999.0,'1111122,1111122,1111122' 
DISL,ioos:station:DISL:MBLA:1,2011-04-03T08:30:00Z,30.4367,-88.0117,14.2,3.98,168.6,-9999.0,'1111122,1111122,1111122' 
DISL,ioos:station:DISL:MBLA:1,2011-04-03T09:00:00Z,30.4367,-88.0117,14.2,4.39,162.2,-9999.0,'1111122,1111122,1111122' 
DISL,ioos:station:DISL:MBLA:1,2011-04-03T09:30:00Z,30.4367,-88.0117,14.2,4.04,161.6,-9999.0,'1111122,1111122,1111122' 
DISL,ioos:station:DISL:MBLA:1,2011-04-03T10:00:00Z,30.4367,-88.0117,14.2,4.07,162.4,-9999.0,'1111122,1111122,1111122' 
DISL,ioos:station:DISL:MBLA:1,2011-04-03T10:30:00Z,30.4367,-88.0117,14.2,3.42,153.6,-9999.0,'1111122,1111122,1111122' 
DISL,ioos:station:DISL:MBLA:1,2011-04-03T11:00:00Z,30.4367,-88.0117,14.2,3.49,139.0,-9999.0,'1111122,1111122,1111122' 
DISL,ioos:station:DISL:MBLA:1,2011-04-03T11:30:00Z,30.4367,-88.0117,14.2,4.31,137.7,-9999.0,'1111122,1111122,1111122' 
DISL,ioos:station:DISL:MBLA:1,2011-04-03T12:00:00Z,30.4367,-88.0117,14.2,4.87,114.6,-9999.0,'1111122,1111122,1111122' 
DISL,ioos:station:DISL:MBLA:1,2011-04-03T12:30:00Z,30.4367,-88.0117,14.2,4.87,113.5,-9999.0,'1111122,1111122,1111122' 
DISL,ioos:station:DISL:MBLA:1,2011-04-03T13:00:00Z,30.4367,-88.0117,14.2,4.55,118.3,-9999.0,'1111122,1111122,1111122' 
DISL,ioos:station:DISL:MBLA:1,2011-04-03T13:30:00Z,30.4367,-88.0117,14.2,4.48,108.0,-9999.0,'1111122,1111122,1111122' 
DISL,ioos:station:DISL:MBLA:1,2011-04-03T14:00:00Z,30.4367,-88.0117,14.2,4.99,117.8,-9999.0,'1111122,1111122,1111122' 
DISL,ioos:station:DISL:MBLA:1,2011-04-03T14:30:00Z,30.4367,-88.0117,14.2,5.75,145.7,-9999.0,'1111122,1111122,1111122' 
DISL,ioos:station:DISL:MBLA:1,2011-04-03T15:00:00Z,30.4367,-88.0117,14.2,6.65,144.6,-9999.0,'1111122,1111122,1111122' 
DISL,ioos:station:DISL:MBLA:1,2011-04-03T15:30:00Z,30.4367,-88.0117,14.2,6.05,149.0,-9999.0,'1111122,1111122,1111122' 
DISL,ioos:station:DISL:MBLA:1,2011-04-03T16:00:00Z,30.4367,-88.0117,14.2,6.39,141.5,-9999.0,'1111122,1111122,1111122' 
DISL,ioos:station:DISL:MBLA:1,2011-04-03T16:30:00Z,30.4367,-88.0117,14.2,6.5,145.5,-9999.0,'1111122,1111122,1111122' 
DISL,ioos:station:DISL:MBLA:1,2011-04-03T17:00:00Z,30.4367,-88.0117,14.2,6.44,151.9,-9999.0,'1111122,1111122,1111122' 
DISL,ioos:station:DISL:MBLA:1,2011-04-03T17:30:00Z,30.4367,-88.0117,14.2,7.0,152.8,-9999.0,'1111122,1111122,1111122' 
DISL,ioos:station:DISL:MBLA:1,2011-04-03T18:00:00Z,30.4367,-88.0117,14.2,7.23,150.2,-9999.0,'1111122,1111122,1111122' 
DISL,ioos:station:DISL:MBLA:1,2011-04-03T18:30:00Z,30.4367,-88.0117,14.2,8.22,145.8,-9999.0,'1111122,1111122,1111122' 
DISL,ioos:station:DISL:MBLA:1,2011-04-03T19:00:00Z,30.4367,-88.0117,14.2,8.34,146.1,-9999.0,'1111122,1111122,1111122' 
DISL,ioos:station:DISL:MBLA:1,2011-04-03T19:30:00Z,30.4367,-88.0117,14.2,8.2,147.0,-9999.0,'1111122,1111122,1111122' 
DISL,ioos:station:DISL:MBLA:1,2011-04-03T20:00:00Z,30.4367,-88.0117,14.2,8.49,146.0,-9999.0,'1111122,1111122,1111122' 
DISL,ioos:station:DISL:MBLA:1,2011-04-03T20:30:00Z,30.4367,-88.0117,14.2,8.19,143.4,-9999.0,'1111122,1111122,1111122' 
DISL,ioos:station:DISL:MBLA:1,2011-04-03T21:00:00Z,30.4367,-88.0117,14.2,8.71,148.3,-9999.0,'1111122,1111122,1111122' 
DISL,ioos:station:DISL:MBLA:1,2011-04-03T21:30:00Z,30.4367,-88.0117,14.2,8.04,148.5,-9999.0,'1111122,1111122,1111122' 
DISL,ioos:station:DISL:MBLA:1,2011-04-03T22:00:00Z,30.4367,-88.0117,14.2,7.82,146.3,-9999.0,'1111122,1111122,1111122' 
DISL,ioos:station:DISL:MBLA:1,2011-04-03T22:30:00Z,30.4367,-88.0117,14.2,7.69,147.0,-9999.0,'1111122,1111122,1111122' 
DISL,ioos:station:DISL:MBLA:1,2011-04-03T23:00:00Z,30.4367,-88.0117,14.2,7.45,147.4,-9999.0,'1111122,1111122,1111122' 
DISL,ioos:station:DISL:MBLA:1,2011-04-03T23:30:00Z,30.4367,-88.0117,14.2,7.22,145.5,-9999.0,'1111122,1111122,1111122' 
DISL,ioos:station:DISL:MBLA:1,2011-04-04T00:00:00Z,30.4367,-88.0117,14.2,7.43,140.7,-9999.0,'1111122,1111122,1111122' 
DISL,ioos:station:DISL:MBLA:1,2011-04-04T00:30:00Z,30.4367,-88.0117,14.2,7.57,139.8,-9999.0,'1111122,1111122,1111122' 
DISL,ioos:station:DISL:MBLA:1,2011-04-04T01:00:00Z,30.4367,-88.0117,14.2,8.46,139.3,-9999.0,'1111122,1111122,1111122' 
DISL,ioos:station:DISL:MBLA:1,2011-04-04T01:30:00Z,30.4367,-88.0117,14.2,8.76,141.1,-9999.0,'1111122,1111122,1111122' 
DISL,ioos:station:DISL:MBLA:1,2011-04-04T02:00:00Z,30.4367,-88.0117,14.2,8.63,147.0,-9999.0,'1111122,1111122,1111122' 
DISL,ioos:station:DISL:MBLA:1,2011-04-04T02:30:00Z,30.4367,-88.0117,14.2,9.23,151.1,-9999.0,'1111122,1111122,1111122' 
DISL,ioos:station:DISL:MBLA:1,2011-04-04T03:00:00Z,30.4367,-88.0117,14.2,8.84,152.1,-9999.0,'1111122,1111122,1111122' 
DISL,ioos:station:DISL:MBLA:1,2011-04-04T03:30:00Z,30.4367,-88.0117,14.2,9.32,155.5,-9999.0,'1111122,1111122,1111122' 
DISL,ioos:station:DISL:MBLA:1,2011-04-04T04:00:00Z,30.4367,-88.0117,14.2,8.97,158.2,-9999.0,'1111122,1111122,1111122' 
DISL,ioos:station:DISL:MBLA:1,2011-04-04T04:30:00Z,30.4367,-88.0117,14.2,8.84,158.0,-9999.0,'1111122,1111122,1111122' 
DISL,ioos:station:DISL:MBLA:1,2011-04-04T05:00:00Z,30.4367,-88.0117,14.2,9.09,157.2,-9999.0,'1111122,1111122,1111122' 
DISL,ioos:station:DISL:MBLA:1,2011-04-04T05:30:00Z,30.4367,-88.0117,14.2,9.65,157.1,-9999.0,'1111122,1111122,1111122' 
DISL,ioos:station:DISL:MBLA:1,2011-04-04T06:00:00Z,30.4367,-88.0117,14.2,9.76,156.2,-9999.0,'1111122,1111122,1111122' 
DISL,ioos:station:DISL:MBLA:1,2011-04-04T06:30:00Z,30.4367,-88.0117,14.2,9.5,159.6,-9999.0,'1111122,1111122,1111122' 
DISL,ioos:station:DISL:MBLA:1,2011-04-04T07:00:00Z,30.4367,-88.0117,14.2,9.23,158.4,-9999.0,'1111122,1111122,1111122' 
DISL,ioos:station:DISL:MBLA:1,2011-04-04T07:30:00Z,30.4367,-88.0117,14.2,9.68,159.7,-9999.0,'1111122,1111122,1111122' 
DISL,ioos:station:DISL:MBLA:1,2011-04-04T08:00:00Z,30.4367,-88.0117,14.2,9.64,157.0,-9999.0,'1111122,1111122,1111122' 
DISL,ioos:station:DISL:MBLA:1,2011-04-04T08:30:00Z,30.4367,-88.0117,14.2,9.85,160.6,-9999.0,'1111122,1111122,1111122' 
DISL,ioos:station:DISL:MBLA:1,2011-04-04T09:00:00Z,30.4367,-88.0117,14.2,10.01,163.5,-9999.0,'1111122,1111122,1111122' 
DISL,ioos:station:DISL:MBLA:1,2011-04-04T09:30:00Z,30.4367,-88.0117,14.2,10.1,163.7,-9999.0,'1111122,1111122,1111122' 
DISL,ioos:station:DISL:MBLA:1,2011-04-04T10:00:00Z,30.4367,-88.0117,14.2,9.94,167.5,-9999.0,'1111122,1111122,1111122' 
DISL,ioos:station:DISL:MBLA:1,2011-04-04T10:30:00Z,30.4367,-88.0117,14.2,9.34,167.8,-9999.0,'1111122,1111122,1111122' 
DISL,ioos:station:DISL:MBLA:1,2011-04-04T11:00:00Z,30.4367,-88.0117,14.2,8.89,168.1,-9999.0,'1111122,1111122,1111122' 
DISL,ioos:station:DISL:MBLA:1,2011-04-04T11:30:00Z,30.4367,-88.0117,14.2,8.45,168.4,-9999.0,'1111122,1111122,1111122' 
DISL,ioos:station:DISL:MBLA:1,2011-04-04T12:00:00Z,30.4367,-88.0117,14.2,8.9,165.8,-9999.0,'1111122,1111122,1111122' 
DISL,ioos:station:DISL:MBLA:1,2011-04-04T12:30:00Z,30.4367,-88.0117,14.2,8.95,168.3,-9999.0,'1111122,1111122,1111122' 
DISL,ioos:station:DISL:MBLA:1,2011-04-04T13:00:00Z,30.4367,-88.0117,14.2,9.12,166.7,-9999.0,'1111122,1111122,1111122' 
DISL,ioos:station:DISL:MBLA:1,2011-04-04T13:30:00Z,30.4367,-88.0117,14.2,9.68,171.0,-9999.0,'1111122,1111122,1111122' 
DISL,ioos:station:DISL:MBLA:1,2011-04-04T14:00:00Z,30.4367,-88.0117,14.2,8.92,167.5,-9999.0,'1111122,1111122,1111122' 
DISL,ioos:station:DISL:MBLA:1,2011-04-04T14:30:00Z,30.4367,-88.0117,14.2,9.35,165.4,-9999.0,'1111122,1111122,1111122' 
DISL,ioos:station:DISL:MBLA:1,2011-04-04T15:00:00Z,30.4367,-88.0117,14.2,9.15,164.5,-9999.0,'1111122,1111122,1111122' 
DISL,ioos:station:DISL:MBLA:1,2011-04-04T15:30:00Z,30.4367,-88.0117,14.2,9.72,165.0,-9999.0,'1111122,1111122,1111122' 
DISL,ioos:station:DISL:MBLA:1,2011-04-04T16:00:00Z,30.4367,-88.0117,14.2,9.55,168.1,-9999.0,'1111122,1111122,1111122' 
DISL,ioos:station:DISL:MBLA:1,2011-04-04T16:30:00Z,30.4367,-88.0117,14.2,8.77,171.6,-9999.0,'1111122,1111122,1111122' 
DISL,ioos:station:DISL:MBLA:1,2011-04-04T17:00:00Z,30.4367,-88.0117,14.2,7.32,175.5,-9999.0,'1111122,1111122,1111122' 
DISL,ioos:station:DISL:MBLA:1,2011-04-04T17:30:00Z,30.4367,-88.0117,14.2,6.8,169.6,-9999.0,'1111122,1111122,1111122' 
DISL,ioos:station:DISL:MBLA:1,2011-04-04T18:00:00Z,30.4367,-88.0117,14.2,5.77,167.8,-9999.0,'1111122,1111122,1111122' 
DISL,ioos:station:DISL:MBLA:1,2011-04-04T18:30:00Z,30.4367,-88.0117,14.2,5.49,167.7,-9999.0,'1111122,1111122,1111122' 
DISL,ioos:station:DISL:MBLA:1,2011-04-04T19:00:00Z,30.4367,-88.0117,14.2,5.6,168.0,-9999.0,'1111122,1111122,1111122' 
DISL,ioos:station:DISL:MBLA:1,2011-04-04T19:30:00Z,30.4367,-88.0117,14.2,4.97,162.4,-9999.0,'1111122,1111122,1111122' 
DISL,ioos:station:DISL:MBLA:1,2011-04-04T20:00:00Z,30.4367,-88.0117,14.2,5.13,164.5,-9999.0,'1111122,1111122,1111122' 
DISL,ioos:station:DISL:MBLA:1,2011-04-04T20:30:00Z,30.4367,-88.0117,14.2,5.21,165.6,-9999.0,'1111122,1111122,1111122' 
DISL,ioos:station:DISL:MBLA:1,2011-04-04T21:00:00Z,30.4367,-88.0117,14.2,5.45,161.4,-9999.0,'1111122,1111122,1111122' 
DISL,ioos:station:DISL:MBLA:1,2011-04-04T21:30:00Z,30.4367,-88.0117,14.2,6.56,159.6,-9999.0,'1111122,1111122,1111122' 
DISL,ioos:station:DISL:MBLA:1,2011-04-04T22:00:00Z,30.4367,-88.0117,14.2,7.78,163.4,-9999.0,'1111122,1111122,1111122' 
DISL,ioos:station:DISL:MBLA:1,2011-04-04T22:30:00Z,30.4367,-88.0117,14.2,9.01,162.5,-9999.0,'1111122,1111122,1111122' 
DISL,ioos:station:DISL:MBLA:1,2011-04-04T23:00:00Z,30.4367,-88.0117,14.2,9.2,170.7,-9999.0,'1111122,1111122,1111122' 
DISL,ioos:station:DISL:MBLA:1,2011-04-04T23:30:00Z,30.4367,-88.0117,14.2,9.0,183.7,-9999.0,'1111122,1111122,1111122' 
DISL,ioos:station:DISL:MBLA:1,2011-04-05T00:00:00Z,30.4367,-88.0117,14.2,11.52,173.0,-9999.0,'1111122,1111122,1111122' 
DISL,ioos:station:DISL:MBLA:1,2011-04-05T00:30:00Z,30.4367,-88.0117,14.2,12.23,180.8,-9999.0,'1111122,1111122,1111122' 
DISL,ioos:station:DISL:MBLA:1,2011-04-05T01:00:00Z,30.4367,-88.0117,14.2,14.16,186.4,-9999.0,'1111122,1111122,1111122' 
DISL,ioos:station:DISL:MBLA:1,2011-04-05T01:30:00Z,30.4367,-88.0117,14.2,15.34,198.1,-9999.0,'1111122,1111122,1111122' 
DISL,ioos:station:DISL:MBLA:1,2011-04-05T02:00:00Z,30.4367,-88.0117,14.2,15.19,196.9,-9999.0,'1111122,1111122,1111122' 
DISL,ioos:station:DISL:MBLA:1,2011-04-05T02:30:00Z,30.4367,-88.0117,14.2,20.15,205.8,-9999.0,'1111122,1111122,1111122' 
DISL,ioos:station:DISL:MBLA:1,2011-04-05T03:00:00Z,30.4367,-88.0117,14.2,14.73,302.8,-9999.0,'1111122,1111122,1111122' 
DISL,ioos:station:DISL:MBLA:1,2011-04-05T03:30:00Z,30.4367,-88.0117,14.2,16.24,306.0,-9999.0,'1111122,1111122,1111122' 